Regional Weather Roundup
Issued by NWS

Home | Current Version | Previous Version | Graphics & Text | Print | Product List | Glossary Off
Versions: 1 2 3 4 5 6 7 8 9 10 11 12 13 14 15 16 17 18 19 20 21 22 23 24 25 26 27 28 29 30 31 32 33 34 35 36 37 38 39 40 41 42 43 44 45 46 47 48 49 50

000
ASUS43 KFSD 200002
RWRSD

WEATHER ROUNDUP FOR SOUTH DAKOTA
NATIONAL WEATHER SERVICE SIOUX FALLS SD
600 PM CST FRI DEC 19 2014

NOTE: "FAIR" INDICATES FEW OR NO CLOUDS BELOW 12,000 FEET WITH NO
SIGNIFICANT WEATHER AND/OR OBSTRUCTIONS TO VISIBILITY.


SDZ001>005-009-010-012>017-200100-
NORTHWEST AND NORTH CENTRAL SOUTH DAKOTA

CITY           SKY/WX    TMP DP  RH WIND       PRES   REMARKS
BUFFALO          N/A     41  23  48 CALM      29.84S
FAITH            N/A     30  26  85 S9        29.93S WCI  22
MOBRIDGE       CLEAR     27  23  85 SE6       29.93R WCI  20
$$

SDZ012>016-024>037-041>051-057-063-072>074-200100-
SOUTHWEST AND SOUTH CENTRAL SOUTH DAKOTA

CITY           SKY/WX    TMP DP  RH WIND       PRES   REMARKS
RAPID CTY ARPT CLEAR     33  24  69 CALM      29.93S
PIERRE         PTCLDY    21  21 100 E3        29.97S
CUSTER         CLEAR     30  14  51 CALM      29.92R
PHILIP         CLEAR     35  24  64 E3        29.96S
PINE RIDGE     CLEAR     31  21  66 SW5       29.97S WCI  26
WINNER         FAIR      29  23  78 SE8       29.98S WCI  21
$$

SDZ004>011-016>023-039-040-200100-
NORTHEAST SOUTH DAKOTA

CITY           SKY/WX    TMP DP  RH WIND       PRES   REMARKS
ABERDEEN       CLOUDY    30  26  85 S10       30.02S WCI  21
WATERTOWN      CLOUDY    28  27  96 S13       30.01F FOG     WCI  17
SISSETON         N/A     30  28  92 S9        30.03S WCI  22
$$

SDZ017-020-022-023-036>040-048>070-200100-
SOUTHEAST SOUTH DAKOTA

CITY           SKY/WX    TMP DP  RH WIND       PRES   REMARKS
SIOUX FALLS    CLOUDY    31  28  89 S12       30.09S WCI  22
HURON          CLOUDY    30  28  92 S10       30.04S WCI  21
MITCHELL       CLOUDY    30  29  96 S13       30.06S WCI  20
YANKTON        CLOUDY    34  28  80 S14       30.09S WCI  24
$$

ABBREVIATIONS USED IN REMARKS
   TC - TEMPERATURE IN CELSIUS
  WCI - WIND CHILL INDEX
   HX - HEAT INDEX
  VSB - VISIBILITY




USA.gov is the U.S. government's official web portal to all federal, state and local government web resources and services.